Regional Weather Roundup
Issued by NWS Charleston, SC

Current Version | Previous Version | Text Only | Print | Product List | Glossary Off
Versions: 1 2 3 4 5 6 7 8 9 10 11 12 13 14 15 16 17 18 19 20 21 22 23 24 25 26 27 28 29 30 31 32 33 34 35 36 37 38 39 40 41 42 43 44 45 46 47 48 49 50

978
ASUS42 KCHS 271727
RWRCHS

REGIONAL WEATHER ROUNDUP
NATIONAL WEATHER SERVICE CHARLESTON SC
1200 PM EST MON FEB 27 2017

NOTE: "FAIR" INDICATES FEW OR NO CLOUDS BELOW 12,000 FEET WITH NO
SIGNIFICANT WEATHER AND/OR OBSTRUCTIONS TO VISIBILITY.

NOT ALL STATIONS ARE QUALITY CONTROLLED. USE DATA WITH CAUTION...
ESPECIALLY DEWPOINT OBSERVATIONS.

SCZ027-030-031-034>040-042>050-271800-
...SOUTHEAST SOUTH CAROLINA...

CITY           SKY/WX    TMP DP  RH WIND       PRES   REMARKS
N CHARLESTON   MOSUNNY   71  48  43 E9G20     30.36F
WATERFRONT PRK   N/A     69  55  60 E7        30.34F
MOUNT PLEASANT FAIR      70  54  56 E6        30.37S
JOHNS ISLAND   FAIR      70  54  56 E9        30.37R
PINOPOLIS        N/A     63  52  67 N7        30.29F
MONCKS CORNER  FAIR      70  43  37 S9        30.36F
SUMMERVILLE    FAIR      70  45  40 E6        30.37F
BEAUFORT MCAS  MOSUNNY   72  55  55 SE6       30.36S
BEAUFORT ARPT  FAIR      70  52  52 SE6       30.34F
HILTON HEAD IS SUNNY     68  55  64 NE8       30.36R
WALTERBORO     SUNNY     70  46  43 SE14G22   30.36F
ALLENDALE      FAIR      70  48  46 E10G18    30.33F

...SOUTHERN MIDLANDS AND PEE DEE...

CITY           SKY/WX    TMP DP  RH WIND       PRES   REMARKS
GEORGETOWN     PTSUNNY   68  48  49 E9        30.39F
KINGSTREE      FAIR      64  43  45 E8        30.38F
ORANGEBURG     SUNNY     65  43  44 E9        30.37F
BARNWELL       FAIR      68  46  45 SE13      30.36R
AIKEN          FAIR      64  37  36 SE10      30.39S
MANNING        FAIR     N/A N/A N/A MISG      30.38F
COLUMBIA       MOSUNNY   67  35  30 E14       30.37F
SUMTER         MOSUNNY   65  41  40 E9        30.36F
FLORENCE       SUNNY     62  41  46 E10       30.41F
MYRTLE BEACH   MOSUNNY   66  46  48 E12       30.42F
N MYRTLE BEACH PTSUNNY   67  46  47 VRB6      30.40F

$$

GAZ063-065-086>088-099>101-113>116-118-119-134>141-150-271800-
...SOUTHEAST GEORGIA...

CITY           SKY/WX    TMP DP  RH WIND       PRES   REMARKS
SAVANNAH ARPT  PTSUNNY   73  52  47 SE16G24   30.34S
HUNTER AAF     MOSUNNY   72  58  62 SE8G18    30.31F
FORT STEWART   PTSUNNY   73  55  53 SE12G17   30.29F
STATESBORO     MOSUNNY   70  55  57 E7        30.32F
SYLVANIA       MOSUNNY  N/A N/A N/A SE7       30.33F
CLAXTON        FAIR      73  60  64 E5        30.30F

...CSRA...CENTRAL AND FAR SOUTHEAST GEORGIA...

CITY           SKY/WX    TMP DP  RH WIND       PRES   REMARKS
THOMSON        MOSUNNY   68  49  49 S7        30.38F
AUGUSTA-BUSH   SUNNY     69  44  40 SE9       30.34S
AUGUSTA-DANIEL SUNNY     66  39  37 E10       30.36R
SWAINSBORO     FAIR      70  52  52 SE16      30.32S
VIDALIA        SUNNY     73  59  60 SE13      30.30S
EASTMAN        FAIR      70  39  31 S8        30.32S
HAZLEHURST     FAIR      73  56  55 SE10      30.27F
ALMA           SUNNY     74  54  49 SE13G24   30.29F
WAYCROSS       SUNNY     78  58  50 S12G21    30.28F
JESUP          FAIR      75  54  46 SE12G22   30.29F
BAXLEY         FAIR      77  59  53 S8        30.28F
BRUNSWICK      MOSUNNY   73  61  64 SE15G21   30.32S
SAINT SIMONS   SUNNY     72  58  61 SE13      30.31F

$$

SCZ027-028-034-036>038-045-046-048>050-GAZ119-141-271800-
...LAKE AND SUPPLEMENTAL COASTAL OBSERVATIONS...

STATION/POSITION TIME  TEMP    WIND        PRES    WAVE   SWELL
                       AIR SEA DIR/SP/G            HT/PER HT/PER/DIR
                 (UTC) (F)     (DEG/KT/KT) (MB)    (FT/S) (FT/S/D)
WINYAH BAY       1630   60      60/ 12     1029.0S
LAKE MURRAY      1630   60     100/  6/ 11 1028.1F
ACE BASIN NERRS  1645   71     110/  5     1028.0S
FORT PULASKI     1700   65 62   90/  7/ 10 1027.7
SAPELO ISLAND    1700   75     140/  9     1027.0

$$

ANZ835-935-AMZ111-154-330-350-352-354-370-450-454-472-271800-
...C-MAN AND BUOY OBSERVATIONS...

STATION/POSITION TIME  TEMP    WIND        PRES    WAVE   SWELL
                       AIR SEA DIR/SP/G            HT/PER HT/PER/DIR
                 (UTC) (F)     (DEG/KT/KT) (MB)    (FT/S) (FT/S/D)
BUOY 41004       1650   69 69  140/ 14/ 16 1027.8R   4/ 9   2/110/ 9
BUOY 41008       1650   66 63  130/  8/  8 1026.7R   4/ 5   3/110/ 5
FOLLY BEACH CMAN 1700   64      50/  7/  9 1028.6F
CAPERS NEARSHORE 1708   63 61   60/  8/ 10 1027.9F
FRIPP NEARSHORE  1708   63 62   60/  4/  8 1027.5R


STATION/POSITION TIME  TEMP    WIND        PRES    WAVE   SWELL
                       AIR SEA DIR/SP/G            HT/PER HT/PER/DIR
                 (UTC) (F)     (DEG/KT/KT) (MB)    (FT/S) (FT/S/D)
5E ST. MARYS GA  1700      64                N/A     4/ 5
FRYING PAN BUOY  1710   66 69  130/ 12/ 16 1029.3
BUOY 41025       1650   63 71  130/ 12/ 16 1031.0R   4/ 8   3/110/ 8
CAPE LOOKOUT NC  1700   63      80/  6/  7 1029.9F
BUOY 41002       1650   67 70  100/ 14/ 17 1029.2F   4/ 8   3/ 60/ 8
BUOY 41010       NOT AVBL
ST AUGUSTINE FL  1700   69 67  130/  4/  5 1026.2S


$$




USA.gov is the U.S. government's official web portal to all federal, state and local government web resources and services.